RYR10XW LERS-EHEH

Flight info

Callsign RYR10XW
Flight time N/A
Altitude 30000
Route ARBEK T113 RUTIP DCT OKABI/N0434F360 DCT TOU DCT ADABI DCT BOKNO UN858 VANAD UN874 ARSAF DCT EGOZE DCT CMB DCT VEKIN DCT ADUTO N873 FERDI Y18 DENUT
Aircraft B738/M-SDE2E3FGHIRWXY/LB1

Departure

Time 2026-04-27 17:25
Airport Reus Airport (LERS)

Arrival

Time N/A
Airport Eindhoven Airport (EHEH)
Time Latitude Longitude Altitude Speed Heading
2026-04-27 17:03 41.14699 1.15681 243 ft 0 kts 339°
2026-04-27 17:11 41.14698 1.15681 242 ft 0 kts 339°
2026-04-27 17:18 41.14696 1.15683 242 ft 2 kts 339°
2026-04-27 17:19 41.14679 1.15691 242 ft 3 kts 337°
2026-04-27 17:19 41.14660 1.15702 242 ft 3 kts 335°
2026-04-27 17:19 41.14642 1.15714 242 ft 3 kts 331°
2026-04-27 17:19 41.14626 1.15726 242 ft 2 kts 327°
2026-04-27 17:20 41.14623 1.15729 242 ft 0 kts 326°
2026-04-27 17:22 41.14623 1.15725 242 ft 1 kts 293°
2026-04-27 17:22 41.14616 1.15704 242 ft 4 kts 248°
2026-04-27 17:22 41.14607 1.15674 243 ft 2 kts 249°
2026-04-27 17:23 41.14595 1.15626 242 ft 9 kts 252°
2026-04-27 17:23 41.14578 1.15583 242 ft 7 kts 224°
2026-04-27 17:23 41.14524 1.15579 242 ft 10 kts 161°
2026-04-27 17:23 41.14462 1.15609 242 ft 9 kts 154°
2026-04-27 17:24 41.14441 1.15691 242 ft 12 kts 77°
2026-04-27 17:24 41.14483 1.15841 243 ft 38 kts 69°
2026-04-27 17:24 41.14670 1.16483 243 ft 110 kts 69°
2026-04-27 17:24 41.15018 1.17688 299 ft 164 kts 71°
2026-04-27 17:25 41.15424 1.19161 944 ft 171 kts 71°
2026-04-27 17:25 41.15842 1.20641 1724 ft 178 kts 71°
2026-04-27 17:25 41.16311 1.22290 2106 ft 208 kts 71°
2026-04-27 17:25 41.16863 1.24191 2369 ft 230 kts 69°
2026-04-27 17:26 41.17479 1.26189 2870 ft 239 kts 70°
2026-04-27 17:26 41.18098 1.28262 3417 ft 249 kts 70°
2026-04-27 17:26 41.18770 1.30484 3838 ft 264 kts 70°
2026-04-27 17:26 41.19472 1.32819 4458 ft 277 kts 70°
2026-04-27 17:27 41.20160 1.35153 5572 ft 269 kts 70°
2026-04-27 17:27 41.21044 1.37330 6456 ft 273 kts 47°
2026-04-27 17:27 41.22685 1.38573 7237 ft 279 kts 12°
2026-04-27 17:27 41.24617 1.38395 7985 ft 284 kts 338°
2026-04-27 17:28 41.26169 1.36832 8782 ft 285 kts 304°
2026-04-27 17:28 41.26850 1.34379 9598 ft 286 kts 275°
2026-04-27 17:28 41.28467 1.29634 10613 ft 311 kts 322°
2026-04-27 17:29 41.30439 1.28260 10828 ft 333 kts 345°
2026-04-27 17:29 41.32769 1.27752 11311 ft 344 kts 352°
2026-04-27 17:29 41.35168 1.27428 11975 ft 349 kts 353°
2026-04-27 17:29 41.37590 1.27145 12677 ft 352 kts 354°
2026-04-27 17:30 41.40045 1.26866 13406 ft 355 kts 353°
2026-04-27 17:30 41.45016 1.26276 14689 ft 363 kts 353°
2026-04-27 17:30 41.47551 1.25961 15292 ft 367 kts 353°
2026-04-27 17:31 41.50105 1.25636 15900 ft 371 kts 353°
2026-04-27 17:31 41.52692 1.25301 16492 ft 375 kts 353°
2026-04-27 17:31 41.55301 1.24960 17078 ft 379 kts 353°
2026-04-27 17:31 41.57941 1.24613 17659 ft 384 kts 352°
2026-04-27 17:32 41.60616 1.24260 18235 ft 388 kts 352°
2026-04-27 17:32 41.66024 1.23546 19305 ft 394 kts 352°
2026-04-27 17:32 41.68756 1.23183 19860 ft 395 kts 352°
2026-04-27 17:33 41.71499 1.22819 20421 ft 397 kts 352°
2026-04-27 17:33 41.74256 1.22453 20940 ft 399 kts 352°
2026-04-27 17:33 41.77019 1.22087 21441 ft 402 kts 352°
2026-04-27 17:33 41.79822 1.21714 21951 ft 405 kts 352°
2026-04-27 17:34 41.82633 1.21341 22443 ft 407 kts 352°
2026-04-27 17:34 41.85462 1.20965 22918 ft 410 kts 352°
2026-04-27 17:34 41.88313 1.20585 23383 ft 413 kts 352°
2026-04-27 17:34 41.91178 1.20203 23820 ft 415 kts 352°
2026-04-27 17:35 41.94060 1.19818 24227 ft 418 kts 352°
2026-04-27 17:35 41.96955 1.19432 24623 ft 420 kts 352°
2026-04-27 17:35 41.99871 1.19042 24999 ft 422 kts 353°
2026-04-27 17:35 42.02777 1.18653 25342 ft 425 kts 353°
2026-04-27 17:36 42.05731 1.18257 25720 ft 428 kts 353°
2026-04-27 17:36 42.08694 1.17860 26114 ft 429 kts 353°
2026-04-27 17:36 42.11685 1.17459 26498 ft 431 kts 353°
2026-04-27 17:36 42.14675 1.17057 26855 ft 433 kts 353°
2026-04-27 17:37 42.17683 1.16652 27226 ft 436 kts 353°
2026-04-27 17:37 42.20706 1.16245 27626 ft 438 kts 353°
2026-04-27 17:37 42.23759 1.15833 27916 ft 442 kts 353°
2026-04-27 17:37 42.26818 1.15420 28238 ft 444 kts 353°
2026-04-27 17:38 42.29900 1.15003 28579 ft 445 kts 353°
2026-04-27 17:38 42.32987 1.14586 28919 ft 447 kts 353°
2026-04-27 17:38 42.36095 1.14166 29194 ft 450 kts 353°
2026-04-27 17:38 42.39185 1.13746 29447 ft 453 kts 353°
2026-04-27 17:39 42.42328 1.13320 29742 ft 455 kts 353°
2026-04-27 17:39 42.45532 1.12884 30007 ft 458 kts 353°
2026-04-27 17:39 42.48667 1.12459 30277 ft 460 kts 353°
2026-04-27 17:39 42.51857 1.12025 30527 ft 461 kts 353°
2026-04-27 17:40 42.55052 1.11592 30825 ft 461 kts 353°
2026-04-27 17:40 42.58237 1.11159 31185 ft 459 kts 353°
2026-04-27 17:40 42.61407 1.10728 31547 ft 458 kts 353°
2026-04-27 17:40 42.64578 1.10295 31794 ft 459 kts 353°
2026-04-27 17:41 42.67760 1.09860 32022 ft 460 kts 353°